Location: Newark
(5.8900°S, 42.6378°W)
Time: 03:10:03
(UTC+00:00)

A-11 Canister half - Visible Passes

Search period start: 17 September 2019 00:00
Search period end: 27 September 2019 00:00
Orbit: 1514 x 1686 km, 47.2° (Epoch: 15 September)

Date Brightness Start Highest point End Pass type
(mag) Time Alt. Az. Time Alt. Az. Time Alt. Az.
17 Sep 11.3 07:49:08 10° SSE 07:53:23 13° SE 07:57:35 10° ESE visible
17 Sep 8.9 22:42:47 10° NW 22:52:32 83° NE 22:54:45 60° SE visible
18 Sep 11.1 00:50:46 10° W 00:53:03 16° WSW 00:53:03 16° WSW visible
18 Sep 11.3 07:26:56 10° SSE 07:30:18 12° SE 07:33:37 10° ESE visible
18 Sep 8.9 22:19:56 10° NW 22:29:36 77° NE 22:34:22 37° SE visible
19 Sep 10.7 00:27:24 10° W 00:32:40 22° WSW 00:32:40 22° WSW visible
19 Sep 11.4 07:05:08 10° SSE 07:07:13 11° SE 07:09:15 10° SE visible
19 Sep 9.0 21:57:04 10° NNW 22:06:41 71° NE 22:14:06 20° SE visible
20 Sep 10.5 00:04:06 10° W 00:11:53 26° SW 00:12:25 26° SW visible
20 Sep 9.1 21:34:14 10° NNW 21:43:45 66° NE 21:53:38 10° SE visible
20 Sep 10.4 23:40:50 10° W 23:48:53 29° SW 23:52:16 24° SSW visible
21 Sep 10.1 08:18:05 10° SSW 08:27:35 48° SE 08:36:40 10° ENE visible
21 Sep 9.2 21:11:25 10° NNW 21:20:50 60° NE 21:30:36 10° SE visible
21 Sep 10.4 23:17:36 10° WNW 23:25:53 31° SW 23:32:12 17° S visible
22 Sep 10.1 07:55:15 10° SSW 08:04:38 45° SE 08:13:36 10° ENE visible
22 Sep 9.3 20:48:39 10° NNW 20:57:55 55° NE 21:07:32 10° SE visible
22 Sep 10.3 22:54:24 10° WNW 23:02:53 34° SW 23:11:40 10° SSE visible
23 Sep 10.2 07:32:25 10° SSW 07:41:40 41° SE 07:50:31 10° ENE visible
23 Sep 10.3 22:31:14 10° WNW 22:39:53 37° SW 22:48:54 10° SSE visible
24 Sep 10.3 07:09:37 10° SSW 07:18:41 38° SE 07:27:24 10° ENE visible
24 Sep 10.2 22:08:06 10° WNW 22:16:55 40° SW 22:26:06 10° SSE visible
25 Sep 10.4 06:46:50 10° SSW 06:55:42 35° SE 07:04:15 10° ENE visible
25 Sep 10.1 21:45:00 10° WNW 21:53:57 43° SW 22:03:16 10° SSE visible
26 Sep 10.4 06:24:03 10° SSW 06:32:42 32° SE 06:41:04 10° ENE visible
26 Sep 10.1 21:21:54 10° WNW 21:30:59 47° SW 21:40:26 10° SSE visible
